Hagerstown, MD

9:00 AM EST on January 18, 2018 (GMT -0500)
Hagerstown Regional-Henson

Weather History for KHGR - August, 2013

Change the Weather History Date:

Tuesday, August 27, 2013

  Actual Average Record
Temperature  
Mean Temperature 81 °F 72 °F  
Max Temperature 90 °F 81 °F 90 °F (2013)
Min Temperature 71 °F 62 °F 57 °F (2008)
Degree Days  
Heating Degree Days 0 0  
Month to date heating degree days 3 0  
Since 1 June heating degree days 6 18  
Since 1 July heating degree days 3 0  
Cooling Degree Days 16 7  
Month to date cooling degree days 190 235  
Year to date cooling degree days 935 841  
Since 1 June cooling degree days 818 765  
Growing Degree Days 31 (Base 50)    
Moisture  
Dew Point 67 °F    
Average Humidity 63    
Maximum Humidity 79    
Minimum Humidity 47    
Precipitation  
Precipitation T in 0.09 in 0.15 in (2006)
Month to date precipitation 1.54 2.73  
Year to date precipitation 19.02 26.22  
Sea Level Pressure  
Sea Level Pressure 29.97 in    
Wind  
Wind Speed 7 mph (WSW)    
Max Wind Speed 15 mph    
Max Gust Speed 23 mph    
Visibility 8 miles    
Events      
T = Trace of Precipitation, MM = Missing Value Source: NWS Daily Summary

Daily Weather History Graph

Daily Weather History Graph

Search for Another Location

Airport or City:

Trip Planner

Search our weather history database for the weather conditions in past years. The results will help you decide how hot, cold, wet, or windy it might be!

Date:

Astronomy

Aug. 27, 2013 Rise Set
Actual Time 6:34 AM EDT 7:49 PM EDT
Civil Twilight 6:06 AM EDT 8:17 PM EDT
Nautical Twilight 5:33 AM EDT 8:50 PM EDT
Astronomical Twilight 4:58 AM EDT 9:25 PM EDT
Moon 11:42 PM EDT (8/27) 1:29 PM EDT (8/27)
Length of Visible Light 14h 10m
Length of Day
13h 14m
Waning Gibbous, 57% of the Moon is Illuminated
Aug 27
Waning Gibbous
Aug 28
Last Quarter
Sep 5
New
Sep 12
First Quarter
Sep 19
Full

Hourly Weather History & Observations

Time (EDT) Temp. Heat Index Dew Point Humidity Pressure Visibility Wind Dir Wind Speed Gust Speed Precip Events Conditions
12:53 AM 78.1 °F - 62.1 °F 58% 30.02 in 10.0 mi SW 6.9 mph - N/A   Scattered Clouds
1:53 AM 75.9 °F - 63.0 °F 64% 30.00 in 10.0 mi WSW 9.2 mph - N/A   Partly Cloudy
2:53 AM 77.0 °F - 63.0 °F 62% 29.99 in 10.0 mi West 8.1 mph - N/A   Mostly Cloudy
3:53 AM 75.9 °F - 63.0 °F 64% 29.98 in 10.0 mi SW 6.9 mph - N/A   Clear
4:53 AM 72.0 °F - 64.0 °F 76% 29.98 in 10.0 mi SSE 6.9 mph - N/A   Overcast
5:53 AM 75.0 °F - 64.0 °F 69% 29.98 in 10.0 mi WSW 5.8 mph - N/A   Overcast
6:53 AM 73.0 °F - 64.9 °F 76% 29.99 in 9.0 mi South 5.8 mph - 0.00 in   Overcast
7:53 AM 73.9 °F - 66.0 °F 76% 29.99 in 9.0 mi Calm Calm - N/A   Scattered Clouds
8:53 AM 78.1 °F - 66.9 °F 68% 29.99 in 8.0 mi West 8.1 mph - N/A   Partly Cloudy
9:53 AM 80.1 °F 82.3 °F 66.9 °F 64% 29.99 in 8.0 mi West 4.6 mph - N/A   Mostly Cloudy
10:53 AM 81.0 °F 83.3 °F 66.9 °F 62% 29.99 in 7.0 mi WNW 9.2 mph - N/A   Overcast
11:53 AM 82.9 °F 85.8 °F 68.0 °F 60% 29.99 in 7.0 mi WNW 10.4 mph - N/A   Mostly Cloudy
12:53 PM 86.0 °F 89.4 °F 68.0 °F 55% 29.98 in 7.0 mi NW 8.1 mph 16.1 mph N/A   Scattered Clouds
1:53 PM 88.0 °F 90.3 °F 66.0 °F 48% 29.95 in 8.0 mi WNW 8.1 mph - N/A   Mostly Cloudy
2:53 PM 89.1 °F 92.1 °F 66.9 °F 48% 29.95 in 8.0 mi NW 8.1 mph - N/A   Partly Cloudy
3:53 PM 90.0 °F 92.4 °F 66.0 °F 45% 29.93 in 9.0 mi West 9.2 mph - N/A   Clear
4:53 PM 82.9 °F 87.5 °F 71.1 °F 67% 29.93 in 5.0 mi SW 10.4 mph - N/A   Haze
5:53 PM 84.0 °F 89.0 °F 71.1 °F 65% 29.91 in 6.0 mi SW 8.1 mph - N/A   Haze
6:53 PM 81.0 °F 84.4 °F 70.0 °F 69% 29.91 in 6.0 mi West 6.9 mph - N/A   Haze
7:53 PM 81.0 °F 84.1 °F 69.1 °F 67% 29.94 in 6.0 mi Calm Calm - N/A   Haze
8:53 PM 80.1 °F 83.2 °F 70.0 °F 71% 29.95 in 7.0 mi WSW 3.5 mph - N/A   Clear
9:53 PM 79.0 °F - 70.0 °F 74% 29.96 in 7.0 mi WSW 3.5 mph - N/A   Scattered Clouds
10:53 PM 77.0 °F - 70.0 °F 79% 29.96 in 8.0 mi SW 4.6 mph - N/A   Clear
11:53 PM 75.9 °F - 69.1 °F 79% 29.96 in 9.0 mi West 3.5 mph - N/A   Clear